Dewpoint
64 64 64 64 64 64 64 64 63 64 64 63 63 63 62 63 63 64 63 62 62 61 60 61 62 61 61 62 62 63 64 64 64 64 64 64 65 67 68 68 66 66 65 65 66 66 65 65 64 63 63 63 62 62 62 62 62 62 61 61 61 61 61 61 60 60 60 60 59 60 60 59 59 59 59 59 59 59 59 58 58 58 58 57 58
64 63 64 64 64 64 64 63 63 63 64 64 63 63 62 62 62 63 63 62 61 61 60 61 61 61 60 61 62 63 63 64 64 64 65 64 65 66 68 67 66 67 67 65 65 65 64 63 64 63 63 62 62 62 62 62 62 62 61 61 61 61 60 61 61 61 61 61 60 60 60 60 60 59 59 59 58 58 58 58 58 58 57 57 58
64 63 64 64 64 64 63 63 63 63 63 63 64 65 63 63 63 63 62 62 61 61 60 61 62 62 62 61 62 62 63 64 65 65 65 65 65 65 67 67 67 67 66 66 65 63 63 62 62 64 63 63 63 63 63 62 62 62 62 61 61 61 60 60 60 60 60 59 60 59 59 59 59 59 59 58 58 58 58 58 58 57 57 59 59
64 64 64 64 64 64 64 64 64 64 64 64 64 64 64 64 65 64 63 62 62 61 61 61 61 62 63 63 64 63 64 64 65 65 65 64 64 64 65 66 67 67 67 66 66 65 63 61 61 64 64 64 63 63 63 63 63 63 62 62 61 61 61 60 60 60 60 59 59 59 59 59 59 59 59 58 58 58 58 58 58 57 57 57 57
64 65 66 64 64 63 63 64 65 65 64 64 65 64 65 64 64 63 63 62 62 61 61 61 61 62 62 63 64 64 64 64 64 64 64 64 64 64 64 64 64 67 66 67 67 66 64 62 61 62 66 65 64 64 63 62 63 63 62 62 62 62 61 61 60 60 60 60 59 59 60 58 58 59 59 58 58 58 58 58 58 58 57 57 57
64 64 64 63 62 62 62 63 64 65 64 64 64 63 64 64 63 63 64 62 61 60 61 61 62 62 62 63 63 63 64 64 64 64 64 64 64 63 63 63 63 64 65 67 67 67 66 65 62 62 66 63 63 64 62 60 62 64 63 63 63 63 62 61 61 61 60 60 60 59 59 60 59 58 58 58 58 58 58 58 57 57 57 57 57
64 64 62 62 62 62 62 63 65 64 64 64 64 63 64 64 63 62 62 62 61 61 61 61 62 62 62 63 63 64 63 63 64 64 64 63 63 63 63 62 62 64 64 63 66 66 66 66 63 63 62 61 62 64 61 61 61 64 64 64 64 64 63 62 62 61 61 60 60 61 60 60 59 59 58 58 57 58 58 57 58 57 57 57 57
64 63 62 62 62 62 63 64 65 64 64 63 63 63 63 63 62 62 61 61 61 60 60 61 62 62 63 63 63 63 62 63 64 64 64 64 63 63 63 63 63 63 65 62 63 65 66 67 67 67 65 62 61 60 62 62 62 62 64 65 64 64 64 63 62 62 62 61 61 60 61 60 59 60 59 58 58 57 57 57 57 58 58 57 57
64 63 62 62 62 62 62 64 64 64 63 62 62 63 63 62 62 62 61 61 61 61 60 61 62 62 62 62 63 62 62 63 63 64 64 63 62 62 62 62 63 67 63 63 64 64 67 67 67 67 67 67 66 65 65 64 64 64 64 64 65 65 65 65 64 63 62 62 61 61 61 61 60 60 60 60 58 57 58 58 57 56 57 57 57
64 63 62 63 63 62 63 64 64 63 62 62 62 61 62 63 62 62 62 61 61 60 61 61 62 62 62 62 62 62 62 62 63 65 63 63 63 62 62 62 63 63 63 63 64 64 65 66 67 67 67 66 65 63 64 64 65 64 65 64 64 64 64 65 65 64 64 63 63 62 61 61 61 61 61 60 60 59 58 58 58 58 57 57 57
64 64 63 63 63 62 63 63 63 63 62 62 62 63 62 61 61 61 62 61 61 60 61 61 62 62 62 62 62 62 62 63 63 63 62 63 63 63 63 62 63 63 62 63 63 63 64 63 63 64 65 66 66 65 65 64 65 64 64 64 64 64 64 65 65 65 64 64 64 63 63 64 62 61 61 61 60 60 60 59 58 59 58 58 57
64 63 63 63 62 62 63 63 63 63 62 62 61 62 62 60 60 61 61 61 61 61 61 61 61 61 61 61 62 62 63 62 62 62 62 63 63 63 63 62 62 63 63 62 63 63 63 63 64 64 64 64 64 63 63 63 64 65 64 65 65 64 64 65 64 65 64 64 64 64 64 63 63 62 62 62 61 61 60 60 60 59 59 58 58
64 63 63 64 62 62 62 62 62 63 62 61 60 61 60 60 60 60 59 59 60 60 60 60 59 58 59 59 60 61 62 62 62 62 62 62 63 63 62 62 62 62 62 62 63 63 63 63 63 64 64 63 61 60 60 61 62 63 65 65 64 65 65 65 64 64 64 63 64 64 63 64 64 64 63 63 63 62 61 60 60 60 59 59 58
64 63 64 63 62 62 62 62 62 62 61 61 60 62 60 61 61 60 59 58 58 60 60 59 57 57 57 57 59 60 61 61 62 62 62 62 61 62 62 62 62 62 62 62 62 63 63 63 63 64 63 61 59 57 57 57 59 62 63 64 64 64 65 64 65 64 64 64 64 63 62 62 62 64 64 64 64 63 63 61 61 60 60 60 59
64 64 63 63 63 62 62 61 61 62 61 60 60 60 60 62 60 60 59 59 59 60 59 58 57 57 57 56 55 55 56 57 59 61 62 60 61 62 62 62 62 64 62 62 62 62 63 63 63 63 63 60 59 56 55 56 58 60 61 62 64 64 62 63 64 63 63 63 64 63 62 63 63 63 63 63 63 64 64 63 62 62 61 60 60
64 64 63 63 62 62 62 62 62 62 61 61 60 59 60 60 60 59 59 59 57 59 60 60 58 57 54 53 54 55 53 53 56 59 61 62 61 61 63 63 63 63 62 62 62 62 62 63 63 63 60 55 53 52 53 54 56 58 59 60 61 64 65 63 62 63 63 63 63 64 63 63 64 64 64 63 63 63 63 64 63 63 62 61 61
62 63 64 63 62 62 61 61 62 61 61 61 61 61 60 60 60 60 59 58 57 58 59 60 59 59 56 54 52 52 52 53 56 56 58 58 60 62 62 62 63 62 62 62 62 61 61 58 55 53 52 52 52 52 53 53 53 56 54 57 58 61 63 64 64 64 64 64 64 63 63 64 64 64 64 64 64 63 62 61 62 63 63 62 62
62 62 62 62 62 62 61 62 61 61 62 61 61 61 60 60 61 61 59 57 58 57 57 58 59 60 58 57 54 52 54 55 53 51 55 57 58 61 61 62 62 61 60 60 61 60 57 54 53 52 52 52 52 51 52 52 55 52 52 53 55 57 58 62 64 64 65 65 65 64 64 63 63 62 63 63 63 63 63 63 62 62 63 63 63
61 61 61 61 60 61 61 61 62 61 62 61 61 61 62 62 62 60 59 59 57 56 57 57 58 59 60 60 60 57 57 55 50 52 50 51 52 57 58 60 60 59 59 59 58 56 55 55 54 53 52 51 50 49 49 50 51 52 53 54 54 53 54 56 60 62 62 62 62 61 61 61 60 59 60 61 61 62 62 62 63 63 63 63 63
60 60 61 60 60 60 60 60 61 62 62 61 60 60 62 62 62 61 60 59 58 57 57 58 58 58 59 58 58 58 57 55 54 52 51 51 51 52 53 55 55 54 56 55 55 55 54 53 52 51 51 50 49 48 48 49 49 48 49 52 52 53 53 53 54 54 59 60 60 60 59 58 58 57 57 57 57 58 60 62 63 63 63 63 63
58 58 58 59 61 60 60 60 60 61 62 61 60 61 60 61 61 60 60 58 58 57 58 58 58 58 57 56 58 57 56 55 53 51 50 49 48 50 50 49 50 52 53 52 52 52 51 50 50 49 50 49 48 47 47 47 48 48 50 52 52 52 52 51 51 52 53 58 57 57 57 57 57 56 55 55 55 55 56 56 58 59 60 60 60
56 57 58 59 58 58 58 58 59 60 61 60 60 60 60 60 61 61 60 59 58 58 58 58 58 58 58 57 56 55 54 53 52 51 51 49 49 48 48 46 48 49 52 51 50 50 49 48 47 46 46 46 46 46 47 46 47 48 51 51 52 51 49 48 46 50 53 55 56 55 55 55 55 55 55 54 55 54 54 54 54 54 56 56 56
56 56 57 58 58 59 57 58 59 60 60 60 60 60 60 60 61 61 60 59 58 58 57 58 58 58 57 57 57 56 54 51 51 50 50 48 48 47 46 46 48 49 50 50 49 47 46 46 44 44 44 44 45 45 46 48 50 51 51 52 51 51 50 47 45 46 50 54 55 52 53 53 52 52 52 53 53 52 52 53 53 53 53 55 55
54 55 56 56 57 56 56 56 57 57 58 58 58 59 59 60 60 60 60 59 59 59 58 57 57 58 57 57 56 55 54 53 53 52 50 49 47 46 45 45 46 47 48 48 47 47 45 43 43 43 43 43 44 46 48 47 49 49 49 50 49 49 50 49 46 46 45 49 51 52 51 50 50 50 50 51 51 51 50 50 51 50 50 52 53
53 53 54 55 56 55 54 53 54 56 57 58 58 58 58 59 59 59 59 59 59 58 58 57 57 58 58 57 57 56 56 56 55 53 51 50 48 45 45 46 46 46 45 45 43 43 46 46 44 44 43 45 46 46 46 47 47 49 50 51 50 50 48 48 49 49 46 45 48 50 50 49 48 49 49 49 49 50 48 49 47 48 48 49 51
52 52 54 56 56 56 55 54 54 55 56 56 57 57 58 59 58 58 58 57 57 57 57 56 56 56 56 57 56 56 56 57 55 53 51 49 47 45 45 44 45 43 38 37 41 40 41 45 45 44 44 43 44 45 46 46 48 50 49 48 47 48 48 47 47 47 45 44 45 47 48 48 48 49 49 48 47 48 48 47 47 47 46 48 49
54 54 55 56 55 53 52 52 53 54 55 56 56 56 56 58 57 57 57 57 57 57 57 57 57 56 56 56 57 57 57 57 55 53 52 49 47 46 44 42 40 38 36 32 34 38 39 41 45 46 46 46 45 45 45 46 48 49 51 46 45 48 48 47 48 46 45 44 43 44 44 46 47 47 47 47 48 47 47 47 47 46 47 48 49
55 56 55 54 54 53 54 54 54 54 54 54 54 55 55 56 55 56 56 58 56 56 56 57 56 56 56 55 56 56 56 57 56 56 52 51 49 47 45 43 39 35 34 34 34 36 39 38 40 44 47 47 47 47 48 47 47 52 50 44 44 46 47 47 47 49 48 46 44 44 43 44 45 46 47 48 47 45 46 47 46 47 46 47 48
55 55 54 54 54 53 53 52 53 53 53 53 53 53 53 53 53 53 52 51 52 51 51 53 53 55 54 55 55 55 56 55 55 55 55 53 50 46 44 43 40 33 31 32 34 36 35 37 36 39 44 47 47 48 48 46 47 50 46 44 43 43 47 48 47 47 46 45 45 44 42 43 45 46 46 46 46 45 45 47 46 46 46 46 47
55 55 53 53 54 55 52 51 52 52 52 52 52 51 50 50 50 51 51 51 51 51 51 51 50 51 51 50 51 53 53 54 54 52 53 53 50 45 43 43 38 33 33 32 32 37 36 36 35 36 39 43 47 47 47 46 49 50 46 46 44 42 45 47 47 45 45 45 44 43 42 42 43 46 46 44 45 46 45 46 47 47 45 45 44
54 52 51 51 51 51 51 50 50 51 51 51 50 50 49 50 50 50 50 51 50 50 50 50 49 50 50 50 50 49 50 50 50 50 50 51 50 45 45 45 41 35 33 34 33 36 37 35 35 35 38 41 44 44 45 45 47 50 47 48 47 46 48 47 47 46 46 46 45 44 44 46 44 44 46 46 46 46 44 44 46 45 44 45 45
51 51 50 50 50 49 49 49 49 49 49 48 48 48 49 49 49 49 49 50 50 50 49 49 49 49 48 47 48 47 47 48 48 48 48 48 48 46 46 44 41 40 37 34 33 34 42 38 36 35 38 40 39 38 37 35 38 51 47 47 49 50 47 44 46 47 46 45 45 45 45 48 48 46 45 44 44 46 46 44 44 43 45 44 44
51 50 50 49 49 49 48 49 48 48 47 46 47 48 48 48 48 49 48 50 49 49 49 48 50 50 50 49 49 49 47 46 46 46 47 47 47 47 46 43 42 40 36 36 34 37 37 43 39 36 37 38 34 31 29 32 34 40 45 45 47 46 43 41 42 45 46 45 44 44 44 44 43 43 43 41 41 42 42 43 45 46 44 44 44
50 50 49 49 49 48 47 48 48 48 47 47 48 48 48 47 47 49 48 49 49 48 48 49 49 50 48 47 48 48 47 45 45 45 45 45 44 44 43 42 40 40 38 37 37 35 35 39 37 40 38 35 29 33 31 35 35 39 36 40 46 43 40 42 41 41 44 45 44 44 44 44 43 43 43 42 42 42 43 41 41 42 44 43 43
51 50 49 49 49 47 47 47 48 47 47 48 48 47 46 46 47 47 48 48 48 48 48 48 48 48 47 48 47 47 48 46 45 45 45 44 44 42 43 42 40 40 40 37 37 37 37 38 40 38 38 39 34 32 33 37 41 42 40 40 42 41 41 43 43 42 43 44 43 43 43 43 43 43 42 42 42 42 42 42 42 41 42 42 43
51 51 49 48 48 46 47 46 46 47 48 49 47 46 47 47 47 48 48 48 48 48 48 48 47 47 46 46 46 46 46 45 45 45 46 45 45 45 45 45 43 42 42 40 38 40 39 37 39 36 39 40 40 41 36 41 41 40 41 42 42 42 42 43 43 43 43 44 44 44 44 44 43 42 42 42 42 42 42 42 42 42 41 42 42
51 51 50 49 48 47 47 46 46 47 49 48 47 47 48 48 48 48 49 48 48 48 48 48 51 47 47 45 46 46 46 46 46 46 46 45 45 45 45 45 44 45 46 42 42 41 39 37 38 40 41 42 43 42 38 37 40 41 42 42 42 43 43 44 44 40 44 44 43 43 42 42 42 42 42 42 42 42 41 41 42 42 43 42 42
51 51 48 48 48 46 45 45 46 47 48 47 46 49 49 48 48 48 48 48 48 48 48 49 49 48 47 47 47 46 46 46 46 47 47 47 46 45 44 45 46 46 45 45 44 41 39 38 39 39 41 41 41 42 40 39 41 41 42 42 43 44 42 41 42 42 43 40 41 42 43 41 41 41 41 41 41 40 41 42 43 43 43 43 42
50 49 47 48 49 46 46 46 47 48 48 47 47 48 48 48 47 47 48 48 48 47 47 48 48 47 47 48 48 47 47 48 48 48 48 47 47 45 45 46 46 45 45 45 45 42 40 39 40 40 39 43 42 39 41 42 42 42 41 40 40 41 42 41 41 41 42 41 40 39 39 39 41 39 40 40 41 42 42 42 43 43 43 42 42
51 48 46 48 48 47 46 46 47 48 47 47 47 48 48 48 48 47 48 49 48 47 47 47 47 47 47 48 48 48 48 49 49 49 48 48 48 47 47 47 46 45 45 46 45 43 42 41 40 41 42 41 41 43 43 41 40 40 42 41 39 39 40 41 40 40 40 40 38 36 38 38 38 39 39 40 41 42 43 43 44 44 43 42 42
53 50 49 51 49 48 47 47 47 48 48 48 47 47 47 48 47 48 48 49 48 47 47 47 47 48 47 48 48 49 51 53 51 49 49 50 48 47 47 47 47 47 46 45 45 45 43 43 42 42 42 42 41 41 40 40 39 39 40 41 39 40 40 39 40 41 39 36 38 35 34 37 37 37 38 39 40 43 42 43 42 42 42 41 41
52 51 51 50 49 48 48 48 47 48 48 48 49 47 47 48 48 48 48 47 48 47 47 47 47 48 48 48 49 55 54 52 50 47 46 47 49 48 48 47 47 47 47 46 45 45 44 43 42 42 42 42 41 41 41 41 42 41 40 39 38 38 38 37 38 39 41 35 36 34 34 37 38 38 38 39 40 42 41 38 39 40 40 40 40
54 54 52 51 51 50 51 50 48 48 49 50 46 43 42 45 47 48 48 47 47 48 47 48 47 49 50 50 50 54 53 52 48 44 43 43 43 44 46 47 48 47 47 46 46 45 45 43 43 42 42 42 42 42 42 42 41 40 39 39 39 38 36 34 33 37 39 36 35 34 34 36 38 37 37 38 40 41 39 39 40 40 39 39 39
53 53 54 53 52 51 51 50 49 50 50 49 42 42 42 42 45 48 49 48 49 49 49 48 49 50 51 51 50 52 51 49 47 44 43 41 40 39 39 40 42 44 46 47 46 44 44 44 43 43 43 43 42 42 41 41 41 40 39 39 38 37 35 34 34 31 35 38 34 34 34 35 38 37 35 35 37 39 38 40 39 39 39 39 39
52 54 53 53 52 51 50 50 50 50 50 44 42 43 43 43 43 47 49 49 48 49 50 49 51 51 51 51 50 51 51 52 50 45 43 41 39 39 39 38 39 39 40 43 43 46 46 45 44 43 43 43 43 42 42 41 41 39 39 37 36 36 34 32 32 33 34 37 35 33 32 35 36 35 34 35 36 37 38 39 39 39 39 39 39
52 53 53 52 52 51 51 50 49 49 49 46 40 42 43 42 42 47 51 51 50 50 52 52 52 52 52 52 51 51 51 52 50 48 46 43 41 40 40 40 39 38 38 38 40 42 44 46 45 44 45 44 43 43 44 41 37 37 36 35 36 34 33 31 33 34 35 38 33 32 32 33 35 33 33 33 35 36 37 39 38 39 38 39 39
51 52 52 52 52 51 51 50 49 50 51 47 41 40 40 41 41 44 50 52 52 52 53 53 53 53 53 53 52 51 52 52 51 49 48 45 43 43 42 41 39 42 44 44 44 46 47 47 46 46 46 43 41 40 41 41 38 36 35 34 33 31 33 35 34 34 34 36 34 33 30 31 33 32 33 34 35 34 35 38 39 38 38 38 39
50 51 50 50 50 51 51 50 50 51 52 47 43 41 39 40 40 48 49 51 52 52 52 53 53 52 52 53 53 52 52 53 49 45 46 47 45 44 43 41 40 37 37 38 37 39 45 46 45 44 41 39 38 38 38 38 38 38 37 37 36 35 34 33 32 33 33 35 35 32 30 30 32 32 32 33 34 33 35 34 37 38 38 38 38
43 46 49 50 52 52 50 49 50 51 52 49 44 42 42 40 42 48 49 50 51 51 52 52 52 52 53 53 51 52 52 52 49 43 44 45 46 45 44 42 40 37 36 36 36 37 39 39 38 38 37 37 37 37 37 36 35 36 34 34 33 33 33 31 32 31 32 32 34 33 31 30 32 31 32 33 33 33 33 33 34 36 38 38 38
39 41 44 47 49 50 51 52 52 52 52 51 47 45 43 40 45 50 49 49 49 50 50 51 52 53 54 52 53 52 51 53 48 43 43 45 47 47 45 42 40 37 35 37 38 37 37 36 36 35 35 35 35 36 36 35 36 39 33 32 34 34 34 33 31 32 32 34 33 34 30 29 30 31 31 31 31 32 33 33 33 35 37 37 37
38 39 41 41 43 46 49 51 53 52 53 52 47 45 44 42 44 49 50 49 48 48 50 51 51 51 52 52 51 51 52 51 46 43 42 45 49 48 46 43 42 38 36 36 35 33 33 32 32 32 32 36 36 35 37 37 38 39 35 35 35 35 34 32 32 30 29 29 32 33 30 29 29 30 30 29 27 30 31 33 34 33 34 35 35